This demonstration page uses our WeatherBlox Daily Observations layout. Learn more.

Left ArrowRight Arrow

Hourly Observations for June 5, 2018

Temp ( °F °C ) Dew Point ( °F °C ) Humidity (%) Winds ( mph kmh ) Pressure ( in mb ) Visibility ( mi km ) Precip ( " mm )
12:54 am 00:54 Clear 64 17.8 58 14.4 81 81 S 7 11 29.88 1012 10 16 0.00 0.00
1:54 am 01:54 Clear 62 16.7 57 13.9 84 84 S 7 11 29.88 1012 10 16 0.00 0.00
2:54 am 02:54 Clear 62 16.7 57 13.9 84 84 S 8 13 29.87 1012 10 16 0.00 0.00
3:54 am 03:54 Clear 61 16.1 57 13.9 87 87 S 6 9 29.87 1012 10 16 0.00 0.00
4:54 am 04:54 Clear 61 16.1 57 13.9 87 87 S 5 7 29.86 1011 10 16 0.00 0.00
5:54 am 05:54 Clear 62 16.7 57 13.9 84 84 S 3 6 29.86 1011 10 16 0.00 0.00
6:54 am 06:54 Sunny 64 17.8 58 14.4 81 81 SSE 3 6 29.87 1011 10 16 0.00 0.00
7:54 am 07:54 Sunny 69 20.6 61 16.1 76 76 S 6 9 29.88 1012 10 16 0.00 0.00
8:54 am 08:54 Sunny 73 22.8 63 17.2 71 71 S 8 13 29.87 1011 10 16 0.00 0.00
9:54 am 09:54 Sunny 77 25 64 17.8 64 64 SSW 13 20 29.86 1011 10 16 0.00 0.00
10:54 am 10:54 Sunny 80 26.7 65 18.3 60 60 SSW 9 15 29.85 1011 10 16 0.00 0.00
11:54 am 11:54 Sunny 83 28.3 67 19.4 59 59 SSW 9 15 29.84 1011 10 16 0.00 0.00
12:54 pm 12:54 Sunny 86 30 66 18.9 51 51 SSW 8 13 29.82 1010 10 16 0.00 0.00
1:54 pm 13:54 Sunny 88 31.1 66 18.9 48 48 S 10 17 29.79 1009 10 16 0.00 0.00
2:54 pm 14:54 Sunny 89 31.7 63 17.2 42 42 S 10 17 29.78 1009 10 16 0.00 0.00
3:54 pm 15:54 Sunny 90 32.2 63 17.2 41 41 SW 10 17 29.78 1008 10 16 0.00 0.00
4:54 pm 16:54 Sunny 90 32.2 64 17.8 42 42 S 9 15 29.77 1008 10 16 0.00 0.00
5:54 pm 17:54 Sunny 89 31.7 64 17.8 43 43 SSW 12 19 29.76 1008 10 16 0.00 0.00
6:54 pm 18:54 Sunny 89 31.7 65 18.3 45 45 S 12 19 29.75 1008 10 16 0.00 0.00
7:54 pm 19:54 Sunny 85 29.4 66 18.9 53 53 S 9 15 29.75 1008 10 16 0.00 0.00
8:54 pm 20:54 Sunny 81 27.2 66 18.9 61 61 SSE 9 15 29.76 1008 10 16 0.00 0.00
9:54 pm 21:54 Clear 78 25.6 66 18.9 67 67 S 7 11 29.77 1008 10 16 0.00 0.00
10:54 pm 22:54 Clear 75 23.9 66 18.9 74 74 S 8 13 29.78 1009 10 16 0.00 0.00
11:54 pm 23:54 Clear 76 24.4 66 18.9 72 72 S 9 15 29.78 1009 10 16 0.00 0.00

Powered by AerisWeather